Tracking 29892 objects as of 21-Nov-2024
HD Live streaming from Space Station
objects crossing your sky now

AMC-3 (GE-3)

Track AMC-3 (GE-3) now!
AMC-3 (GE-3) is classified as:


NORAD ID: 24936
Int'l Code: 1997-050A
Perigee: 35,780.1 km
Apogee: 35,807.4 km
Inclination: 6.7 °
Period: 1,436.1 minutes
Semi major axis: 42164 km
RCS: 8.252 m2 (large)
Launch date: September 4, 1997
Source: SOCIETE EUROPEENNE DES SATELLITES (SES)
Launch site: AIR FORCE EASTERN TEST RANGE (AFETR)

Broadcasting, business, cable; CONUS, Hawaii, Caribbean, southern Canada; 24 Ku- and 24 C-band
Your satellite tracking list
Your tracking list is empty




NASA's NSSDC Master Catalog

Two Line Element Set (TLE):
1 24936U 97050A   24325.25257741 -.00000260  00000-0  00000-0 0  9993
2 24936   6.7340  70.4912 0003231 178.5519 189.6517  1.00271686 46686
Source of the keplerian elements: AFSPC